Weather Roundup
Issued by NWS Springfield, MO

Home | Current Version | Previous Version | Text Only | Print | Product List | Glossary On
Versions: 1 2 3 4 5 6 7 8 9 10 11 12 13 14 15 16 17 18 19 20 21 22 23 24 25 26 27 28 29 30 31 32 33 34 35 36 37 38 39 40 41 42 43 44 45 46 47 48 49 50
000
NZUS99 KSGF 251307
HRRSGF

HOURLY WEATHER
NATIONAL WEATHER SERVICE SPRINGFIELD MO
800 AM CDT SAT OCT 25 2014

......SGF CWA......

CITY           SKY/WX    TMP DP  RH WIND       PRES   REMARKS
SPRINGFIELD    CLEAR     63  58  83 W6        30.08R
JOPLIN         CLEAR     61  58  90 S6        30.08R
WEST PLAINS    CLEAR     58  56  93 W7        30.08S FOG
ROLLA          CLEAR     57  55  93 W6        30.04R FOG
OSAGE BEACH    CLEAR     57  55  94 CALM      30.06R
BRANSON        CLEAR     63  59  88 SW7       30.09S

......SURROUNDING SGF CWA......

CITY           SKY/WX    TMP DP  RH WIND       PRES   REMARKS
CHANUTE        FOG       53  53 100 SE3       30.06R VSB<1/4
PARSONS        FOG       55  55 100 CALM      30.08R VSB 1/4
COFFEYVILLE    FOG       56  56 100 CALM      30.06R VSB<1/4
EMPORIA        FOG       56  56 100 CALM      30.05R VSB 1/2
GROVE OK         N/A     54  54 100 CALM      30.09R FOG
ROGERS AR      CLEAR     61  57  87 SW7       30.11S
SILOAM SPRINGS CLEAR     57  52  82 S6        30.11S
HARRISON AR    CLEAR     68  59  73 W9G18     30.09S
NEAR YELLVILLE   N/A     52  48  87 CALM      30.08S VSB 1/2

......KANSAS AND MISSOURI......

CITY           SKY/WX    TMP DP  RH WIND       PRES   REMARKS
KANSAS CTY INT FOG       54  54 100 CALM      30.05S VSB 1/4
DOWNTOWN KC    FOG       57  56  96 CALM      30.04S VSB<1/4
COLUMBIA       FOG       55  55 100 SW6       30.04S VSB 1/4
SEDALIA        FOG       59  57  93 SW6       30.05S VSB 1/2
ST JOSEPH      FOG       50  50 100 CALM      30.06R VSB<1/4
ST LOUIS       PTCLDY    58  56  93 W5        30.04R FOG
SPIRIT OF STL  CLEAR     52  52 100 CALM      30.03R FOG
KIRKSVILLE     FOG       48  48 100 NW3       30.03S VSB<1/4
WICHITA        FOG       52  50  93 CALM      30.04S VSB 1
TOPEKA         FOG       53  53 100 CALM      30.06R VSB<1/4
OLATHE         FOG       53  53 100 CALM      30.05R VSB<1/4

......TENNESSEE......

CITY           SKY/WX    TMP DP  RH WIND       PRES   REMARKS
MEMPHIS        PTCLDY    58  54  86 CALM      30.10R
NASHVILLE      MOSUNNY   47  46  97 CALM      30.10S

......ARKANSAS.......

CITY           SKY/WX    TMP DP  RH WIND       PRES   REMARKS
FAYETTEVILLE   CLEAR     59  58  96 S8        30.11S
FT SMITH       FOG       57  55  93 E5        30.11R VSB 3/4
LITTLE ROCK    CLEAR     59  55  87 SW6       30.11S

......OKLAHOMA.......

CITY           SKY/WX    TMP DP  RH WIND       PRES   REMARKS
TULSA          CLEAR     61  59  93 SE6       30.05S FOG
PONCA CITY     CLEAR     56  54  93 CALM      30.05R FOG
MCALESTER      PTCLDY    64  58  80 S7        30.10S
OKLAHOMA CITY  CLEAR     58  55  90 S7        30.06S FOG

......IOWA............

CITY           SKY/WX    TMP DP  RH WIND       PRES   REMARKS
DES MOINES     CLEAR     54  42  64 N6        30.06R
QUAD CITIES    FOG       51  50  96 W5        29.99R VSB 1

......ILLINOIS........

CITY           SKY/WX    TMP DP  RH WIND       PRES   REMARKS
QUINCY         FOG       53  52  96 CALM      30.02R VSB<1/4
CHICAGO        PTCLDY    55  53  93 W6        29.91R FOG




USA.gov is the U.S. government's official web portal to all federal, state and local government web resources and services.